Year,Month,Day,Hour,Minute,Value (Times are PST for insolation in W/m^2)
2021,04,26,08,46,188.00
2021,04,26,08,47,188.00
2021,04,26,08,48,200.70
2021,04,26,08,49,212.00
2021,04,26,08,50,217.10
2021,04,26,08,51,216.30
2021,04,26,08,52,216.00
2021,04,26,08,53,213.30
2021,04,26,08,54,216.20
2021,04,26,08,55,218.00
2021,04,26,08,56,218.00
2021,04,26,08,57,218.00
2021,04,26,08,58,218.00
2021,04,26,08,59,218.00
2021,04,26,09,00,218.00
2021,04,26,09,01,218.00
2021,04,26,09,02,218.00
2021,04,26,09,03,218.00
2021,04,26,09,04,221.60
2021,04,26,09,05,224.50
2021,04,26,09,06,208.70
2021,04,26,09,07,202.40
2021,04,26,09,08,206.70
2021,04,26,09,09,206.00
2021,04,26,09,10,205.70
2021,04,26,09,11,204.00
2021,04,26,09,12,204.60
2021,04,26,09,13,206.00
2021,04,26,09,14,206.00
2021,04,26,09,15,207.40
2021,04,26,09,16,210.00
2021,04,26,09,17,214.00
2021,04,26,09,18,219.30
2021,04,26,09,19,226.70
2021,04,26,09,20,234.40
2021,04,26,09,21,242.00
2021,04,26,09,22,260.20
2021,04,26,09,23,273.50
2021,04,26,09,24,278.20
2021,04,26,09,25,312.70
2021,04,26,09,26,278.30
2021,04,26,09,27,267.90
2021,04,26,09,28,265.00
2021,04,26,09,29,265.00
2021,04,26,09,30,268.30
2021,04,26,09,31,277.80
2021,04,26,09,32,290.10
2021,04,26,09,33,304.30
2021,04,26,09,34,316.90
2021,04,26,09,35,355.50
2021,04,26,09,36,386.60
2021,04,26,09,37,440.70
2021,04,26,09,38,511.10
2021,04,26,09,39,498.10
2021,04,26,09,40,490.00
2021,04,26,09,41,490.00
2021,04,26,09,42,481.70
2021,04,26,09,43,449.00
2021,04,26,09,44,425.00
2021,04,26,09,45,425.00
2021,04,26,09,46,425.00
2021,04,26,09,47,358.80
2021,04,26,09,48,310.30
2021,04,26,09,49,308.30
2021,04,26,09,50,302.60
2021,04,26,09,51,293.30
2021,04,26,09,52,283.90
2021,04,26,09,53,281.40
2021,04,26,09,54,290.10
2021,04,26,09,55,314.40
2021,04,26,09,56,286.20
2021,04,26,09,57,304.00
2021,04,26,09,58,338.70
2021,04,26,09,59,373.20
2021,04,26,10,00,305.90
2021,04,26,10,01,275.00
2021,04,26,10,02,257.50
2021,04,26,10,03,257.70
2021,04,26,10,04,265.00
2021,04,26,10,05,333.50
2021,04,26,10,06,370.10
2021,04,26,10,07,409.20
2021,04,26,10,08,411.80
2021,04,26,10,09,387.00
2021,04,26,10,10,387.00
2021,04,26,10,11,389.70
2021,04,26,10,12,395.00
2021,04,26,10,13,374.30
2021,04,26,10,14,343.20
2021,04,26,10,15,314.70
2021,04,26,10,16,281.20
2021,04,26,10,17,246.70
2021,04,26,10,18,223.30
2021,04,26,10,19,219.40
2021,04,26,10,20,230.70
2021,04,26,10,21,241.40
2021,04,26,10,22,252.00
2021,04,26,10,23,256.50
2021,04,26,10,24,250.90
2021,04,26,10,25,249.40
2021,04,26,10,26,244.00
2021,04,26,10,27,236.10
2021,04,26,10,28,231.00
2021,04,26,10,29,222.10
2021,04,26,10,30,217.00
2021,04,26,10,31,217.00
2021,04,26,10,32,218.00
2021,04,26,10,33,215.30
2021,04,26,10,34,211.90
2021,04,26,10,35,207.10
2021,04,26,10,36,200.90
2021,04,26,10,37,199.10
2021,04,26,10,38,197.20
2021,04,26,10,39,199.30
2021,04,26,10,40,203.00
2021,04,26,10,41,210.60
2021,04,26,10,42,218.60
2021,04,26,10,43,230.30
2021,04,26,10,44,248.00
2021,04,26,10,45,269.00
2021,04,26,10,46,295.10
2021,04,26,10,47,325.70
2021,04,26,10,48,356.70
2021,04,26,10,49,386.00
2021,04,26,10,50,417.20
2021,04,26,10,51,494.30
2021,04,26,10,52,536.80
2021,04,26,10,53,511.90
2021,04,26,10,54,463.90
2021,04,26,10,55,496.00
2021,04,26,10,56,570.90
2021,04,26,10,57,534.90
2021,04,26,10,58,518.00
2021,04,26,10,59,510.00
2021,04,26,11,00,510.00
2021,04,26,11,01,510.00
2021,04,26,11,02,510.00
2021,04,26,11,03,510.00
2021,04,26,11,04,510.00
2021,04,26,11,05,952.80
2021,04,26,11,06,1069.30
2021,04,26,11,07,1067.00
2021,04,26,11,08,1061.70
2021,04,26,11,09,960.30
2021,04,26,11,10,1049.00
2021,04,26,11,11,1035.60
2021,04,26,11,12,974.90
2021,04,26,11,13,937.00
2021,04,26,11,14,937.00
2021,04,26,11,15,935.10
2021,04,26,11,16,933.00
2021,04,26,11,17,933.00
2021,04,26,11,18,495.00
2021,04,26,11,19,268.10
2021,04,26,11,20,259.60
2021,04,26,11,21,255.40
2021,04,26,11,22,253.20
2021,04,26,11,23,246.00
2021,04,26,11,24,238.50
2021,04,26,11,25,234.00
2021,04,26,11,26,234.70
2021,04,26,11,27,238.70
2021,04,26,11,28,245.30
2021,04,26,11,29,251.90
2021,04,26,11,30,256.40
2021,04,26,11,31,259.00
2021,04,26,11,32,263.00
2021,04,26,11,33,269.70
2021,04,26,11,34,277.00
2021,04,26,11,35,289.00
2021,04,26,11,36,305.70
2021,04,26,11,37,327.10
2021,04,26,11,38,357.30
2021,04,26,11,39,404.00
2021,04,26,11,40,404.00
2021,04,26,11,41,456.00
2021,04,26,11,42,621.00
2021,04,26,11,43,595.70
2021,04,26,11,44,573.90
2021,04,26,11,45,516.60
2021,04,26,11,46,502.00
2021,04,26,11,47,511.60
2021,04,26,11,48,517.70
2021,04,26,11,49,525.60
2021,04,26,11,50,515.90
2021,04,26,11,51,516.30
2021,04,26,11,52,561.30
2021,04,26,11,53,549.50
2021,04,26,11,54,562.10
2021,04,26,11,55,549.10
2021,04,26,11,56,517.30
2021,04,26,11,57,509.10
2021,04,26,11,58,517.70
2021,04,26,11,59,525.30
2021,04,26,12,00,511.00
2021,04,26,12,01,500.00
2021,04,26,12,02,503.10
2021,04,26,12,03,540.00
2021,04,26,12,04,557.00
2021,04,26,12,05,626.50
2021,04,26,12,06,702.70
2021,04,26,12,07,626.00
2021,04,26,12,08,617.00
2021,04,26,12,09,617.00
2021,04,26,12,10,691.20
2021,04,26,12,11,1025.00
2021,04,26,12,12,1025.00
2021,04,26,12,13,951.50
2021,04,26,12,14,823.00
2021,04,26,12,15,978.70
2021,04,26,12,16,1150.00
2021,04,26,12,17,1150.00
2021,04,26,12,18,1130.90
2021,04,26,12,19,1120.00
2021,04,26,12,20,1120.00
2021,04,26,12,21,1120.00
2021,04,26,12,22,648.60
2021,04,26,12,23,590.80
2021,04,26,12,24,419.90
2021,04,26,12,25,438.00
2021,04,26,12,26,443.90
2021,04,26,12,27,464.00
2021,04,26,12,28,464.00
2021,04,26,12,29,498.00
2021,04,26,12,30,573.70
2021,04,26,12,31,652.80
2021,04,26,12,32,698.00
2021,04,26,12,33,698.00
2021,04,26,12,34,685.10
2021,04,26,12,35,680.00
2021,04,26,12,36,854.90
2021,04,26,12,37,884.00
2021,04,26,12,38,884.00
2021,04,26,12,39,876.90
2021,04,26,12,40,803.90
2021,04,26,12,41,787.50
2021,04,26,12,42,837.00
2021,04,26,12,43,709.30
2021,04,26,12,44,428.60
2021,04,26,12,45,382.00
2021,04,26,12,46,361.60
2021,04,26,12,47,348.30
2021,04,26,12,48,337.70
2021,04,26,12,49,326.10
2021,04,26,12,50,320.70
2021,04,26,12,51,322.60
2021,04,26,12,52,331.10
2021,04,26,12,53,349.50
2021,04,26,12,54,355.50
2021,04,26,12,55,340.30
2021,04,26,12,56,335.50
2021,04,26,12,57,334.60
2021,04,26,12,58,336.70
2021,04,26,12,59,338.40
2021,04,26,13,00,340.00
2021,04,26,13,01,342.00
2021,04,26,13,02,344.20
2021,04,26,13,03,345.00
2021,04,26,13,04,345.00
2021,04,26,13,05,343.50
2021,04,26,13,06,339.60
2021,04,26,13,07,338.10
2021,04,26,13,08,334.20
2021,04,26,13,09,332.00
2021,04,26,13,10,332.00
2021,04,26,13,11,333.40
2021,04,26,13,12,340.00
2021,04,26,13,13,349.00
2021,04,26,13,14,359.90
2021,04,26,13,15,365.40
2021,04,26,13,16,370.10
2021,04,26,13,17,374.80
2021,04,26,13,18,379.30
2021,04,26,13,19,388.90
2021,04,26,13,20,397.30
2021,04,26,13,21,397.40
2021,04,26,13,22,400.60
2021,04,26,13,23,403.00
2021,04,26,13,24,404.40
2021,04,26,13,25,415.30
2021,04,26,13,26,466.00
2021,04,26,13,27,486.60
2021,04,26,13,28,482.00
2021,04,26,13,29,499.40
2021,04,26,13,30,510.60
2021,04,26,13,31,491.20
2021,04,26,13,32,477.20
2021,04,26,13,33,470.00
2021,04,26,13,34,463.10
2021,04,26,13,35,465.10
2021,04,26,13,36,470.30
2021,04,26,13,37,474.60
2021,04,26,13,38,478.00
2021,04,26,13,39,480.20
2021,04,26,13,40,482.70
2021,04,26,13,41,489.00
2021,04,26,13,42,499.40
2021,04,26,13,43,514.30
2021,04,26,13,44,527.00
2021,04,26,13,45,527.00
2021,04,26,13,46,527.00
2021,04,26,13,47,527.00
2021,04,26,13,48,541.00
2021,04,26,13,49,544.40
2021,04,26,13,50,566.20
2021,04,26,13,51,573.00
2021,04,26,13,52,755.80
2021,04,26,13,53,765.90
2021,04,26,13,54,571.50
2021,04,26,13,55,536.40
2021,04,26,13,56,530.20
2021,04,26,13,57,534.10
2021,04,26,13,58,517.70
2021,04,26,13,59,524.70
2021,04,26,14,00,549.50
2021,04,26,14,01,568.00
2021,04,26,14,02,568.00
2021,04,26,14,03,568.00
2021,04,26,14,04,634.40
2021,04,26,14,05,646.50
2021,04,26,14,06,642.00
2021,04,26,14,07,642.00
2021,04,26,14,08,1312.10
2021,04,26,14,09,1320.30
2021,04,26,14,10,1285.00
2021,04,26,14,11,1285.00
2021,04,26,14,12,1305.60
2021,04,26,14,13,1334.00
2021,04,26,14,14,1288.00
2021,04,26,14,15,1288.00
2021,04,26,14,16,1288.00
2021,04,26,14,17,1288.00
2021,04,26,14,18,870.00
2021,04,26,14,19,661.00
2021,04,26,14,20,661.00
2021,04,26,14,21,850.40
2021,04,26,14,22,882.00
2021,04,26,14,23,603.80
2021,04,26,14,24,621.00
2021,04,26,14,25,621.00
2021,04,26,14,26,621.00
2021,04,26,14,27,621.00
2021,04,26,14,28,621.00
2021,04,26,14,29,621.00
2021,04,26,14,30,621.00
2021,04,26,14,31,901.80
2021,04,26,14,32,1099.70
2021,04,26,14,33,1060.00
2021,04,26,14,34,1060.00
2021,04,26,14,35,1060.00
2021,04,26,14,36,1060.00
2021,04,26,14,37,1060.00
2021,04,26,14,38,650.70
2021,04,26,14,39,637.50
2021,04,26,14,40,661.00
2021,04,26,14,41,677.80
2021,04,26,14,42,730.40
2021,04,26,14,43,719.00
2021,04,26,14,44,721.00
2021,04,26,14,45,712.60
2021,04,26,14,46,689.50
2021,04,26,14,47,708.00
2021,04,26,14,48,729.00
2021,04,26,14,49,729.00
2021,04,26,14,50,729.00
2021,04,26,14,51,617.60
2021,04,26,14,52,561.00
2021,04,26,14,53,533.30
2021,04,26,14,54,513.90
2021,04,26,14,55,501.00
2021,04,26,14,56,487.00
2021,04,26,14,57,482.00
2021,04,26,14,58,494.70
2021,04,26,14,59,517.80
2021,04,26,15,00,532.30
2021,04,26,15,01,537.00
2021,04,26,15,02,539.80
2021,04,26,15,03,549.70
2021,04,26,15,04,569.00
2021,04,26,15,05,579.00
2021,04,26,15,06,575.70
2021,04,26,15,07,576.80
2021,04,26,15,08,635.20
2021,04,26,15,09,638.00
2021,04,26,15,10,628.30
2021,04,26,15,11,576.60
2021,04,26,15,12,588.10
2021,04,26,15,13,547.30
2021,04,26,15,14,514.30
2021,04,26,15,15,498.40
2021,04,26,15,16,483.70
2021,04,26,15,17,472.70
2021,04,26,15,18,464.30
2021,04,26,15,19,458.40
2021,04,26,15,20,455.50
2021,04,26,15,21,456.70
2021,04,26,15,22,460.60
2021,04,26,15,23,462.10
2021,04,26,15,24,466.00
2021,04,26,15,25,465.40
2021,04,26,15,26,461.80
2021,04,26,15,27,461.00
2021,04,26,15,28,462.00
2021,04,26,15,29,466.00
2021,04,26,15,30,476.60
2021,04,26,15,31,492.30
2021,04,26,15,32,509.60
2021,04,26,15,33,529.70
2021,04,26,15,34,537.40
2021,04,26,15,35,539.50
2021,04,26,15,36,553.90
2021,04,26,15,37,552.50
2021,04,26,15,38,520.80
2021,04,26,15,39,504.90
2021,04,26,15,40,493.30
2021,04,26,15,41,490.10
2021,04,26,15,42,496.60
2021,04,26,15,43,501.00
2021,04,26,15,44,499.90
2021,04,26,15,45,518.30
2021,04,26,15,46,537.10
2021,04,26,15,47,571.90
2021,04,26,15,48,594.00
2021,04,26,15,49,594.00
2021,04,26,15,50,594.00
2021,04,26,15,51,594.00
2021,04,26,15,52,993.00
2021,04,26,15,53,1028.30
2021,04,26,15,54,1023.80
2021,04,26,15,55,980.70
2021,04,26,15,56,900.60
2021,04,26,15,57,892.40
2021,04,26,15,58,924.30
2021,04,26,15,59,924.70
2021,04,26,16,00,920.00
2021,04,26,16,01,909.00
2021,04,26,16,02,832.80
2021,04,26,16,03,829.30
2021,04,26,16,04,836.90
2021,04,26,16,05,816.30
2021,04,26,16,06,803.80
2021,04,26,16,07,793.90
2021,04,26,16,08,784.20
2021,04,26,16,09,779.50
2021,04,26,16,10,774.60
2021,04,26,16,11,772.00
2021,04,26,16,12,771.40
2021,04,26,16,13,770.00
2021,04,26,16,14,770.80
2021,04,26,16,15,772.00
2021,04,26,16,16,768.90
2021,04,26,16,17,766.00
2021,04,26,16,18,772.00
2021,04,26,16,19,758.60
2021,04,26,16,20,746.60
2021,04,26,16,21,739.00
2021,04,26,16,22,735.30
2021,04,26,16,23,729.00
2021,04,26,16,24,721.30
2021,04,26,16,25,714.00
2021,04,26,16,26,706.90
2021,04,26,16,27,702.10
2021,04,26,16,28,698.00
2021,04,26,16,29,692.80
2021,04,26,16,30,690.00
2021,04,26,16,31,688.00
2021,04,26,16,32,686.40
2021,04,26,16,33,686.70
2021,04,26,16,34,687.00
2021,04,26,16,35,686.20
2021,04,26,16,36,684.30
2021,04,26,16,37,680.40
2021,04,26,16,38,677.10
2021,04,26,16,39,672.50
2021,04,26,16,40,667.60
2021,04,26,16,41,666.50
2021,04,26,16,42,668.00
2021,04,26,16,43,669.70
2021,04,26,16,44,673.80
2021,04,26,16,45,676.90
2021,04,26,16,46,681.60
2021,04,26,16,47,684.00
2021,04,26,16,48,684.00
2021,04,26,16,49,679.00
2021,04,26,16,50,679.30
2021,04,26,16,51,689.00
2021,04,26,16,52,691.00
2021,04,26,16,53,314.90
2021,04,26,16,54,321.60
2021,04,26,16,55,555.00
2021,04,26,16,56,580.90
2021,04,26,16,57,683.60
2021,04,26,16,58,661.70
2021,04,26,16,59,653.70
2021,04,26,17,00,644.70
2021,04,26,17,01,636.30
2021,04,26,17,02,630.00
2021,04,26,17,03,625.30
2021,04,26,17,04,620.40
2021,04,26,17,05,617.50
2021,04,26,17,06,615.40
2021,04,26,17,07,613.20
2021,04,26,17,08,610.00
2021,04,26,17,09,605.70
2021,04,26,17,10,602.40
2021,04,26,17,11,597.70
2021,04,26,17,12,591.70
2021,04,26,17,13,589.00
2021,04,26,17,14,584.60
2021,04,26,17,15,582.10
2021,04,26,17,16,577.40
2021,04,26,17,17,572.60
2021,04,26,17,18,571.00
2021,04,26,17,19,570.30
2021,04,26,17,20,570.00
2021,04,26,17,21,568.40
2021,04,26,17,22,564.40
2021,04,26,17,23,562.90
2021,04,26,17,24,558.80
2021,04,26,17,25,556.70
2021,04,26,17,26,554.80
2021,04,26,17,27,553.40
2021,04,26,17,28,552.00
2021,04,26,17,29,551.20
2021,04,26,17,30,550.90
2021,04,26,17,31,552.00
2021,04,26,17,32,553.20
2021,04,26,17,33,556.00
2021,04,26,17,34,555.60
2021,04,26,17,35,556.50
2021,04,26,17,36,537.40
2021,04,26,17,37,443.40
2021,04,26,17,38,438.50
2021,04,26,17,39,533.90
2021,04,26,17,40,531.40
2021,04,26,17,41,520.10
2021,04,26,17,42,509.80
2021,04,26,17,43,501.30
2021,04,26,17,44,493.10
2021,04,26,17,45,487.10
2021,04,26,17,46,482.40
2021,04,26,17,47,478.90
2021,04,26,17,48,474.80
2021,04,26,17,49,470.10
2021,04,26,17,50,465.10
2021,04,26,17,51,462.30
2021,04,26,17,52,459.30
2021,04,26,17,53,457.10
2021,04,26,17,54,453.60
2021,04,26,17,55,449.40
2021,04,26,17,56,445.80
2021,04,26,17,57,445.00
2021,04,26,17,58,446.00
2021,04,26,17,59,450.50
2021,04,26,18,00,457.10
2021,04,26,18,01,462.60
2021,04,26,18,02,464.00
2021,04,26,18,03,344.40
2021,04,26,18,04,248.10
2021,04,26,18,05,230.80
2021,04,26,18,06,235.00
2021,04,26,18,07,255.00
2021,04,26,18,08,317.50
2021,04,26,18,09,362.50
2021,04,26,18,10,309.70
2021,04,26,18,11,240.30
2021,04,26,18,12,212.00
2021,04,26,18,13,207.00
2021,04,26,18,14,207.00
2021,04,26,18,15,221.30
2021,04,26,18,16,244.30
2021,04,26,18,17,250.40
2021,04,26,18,18,246.20
2021,04,26,18,19,275.40
2021,04,26,18,20,349.00
2021,04,26,18,21,313.00
2021,04,26,18,22,285.00
2021,04,26,18,23,282.30
2021,04,26,18,24,268.30
2021,04,26,18,25,272.40
2021,04,26,18,26,213.80
2021,04,26,18,27,181.60
2021,04,26,18,28,178.40
2021,04,26,18,29,181.30
2021,04,26,18,30,189.50
2021,04,26,18,31,203.40
2021,04,26,18,32,211.00
2021,04,26,18,33,251.70
2021,04,26,18,34,307.70
2021,04,26,18,35,365.30
2021,04,26,18,36,370.30
2021,04,26,18,37,367.20
2021,04,26,18,38,365.50
2021,04,26,18,39,354.10
2021,04,26,18,40,345.00
2021,04,26,18,41,338.80
2021,04,26,18,42,336.90
2021,04,26,18,43,319.50
2021,04,26,18,44,285.40
2021,04,26,18,45,287.50
2021,04,26,18,46,311.00
2021,04,26,18,47,314.70
2021,04,26,18,48,299.70
2021,04,26,18,49,282.60
2021,04,26,18,50,278.80
2021,04,26,18,51,279.00
2021,04,26,18,52,272.70
2021,04,26,18,53,258.30
2021,04,26,18,54,250.10
2021,04,26,18,55,251.00
2021,04,26,18,56,251.00
2021,04,26,18,57,251.00
2021,04,26,18,58,251.00
2021,04,26,18,59,251.00
2021,04,26,19,00,259.20
2021,04,26,19,01,266.90
2021,04,26,19,02,263.20
2021,04,26,19,03,259.30
2021,04,26,19,04,254.40
2021,04,26,19,05,250.70
2021,04,26,19,06,244.90
2021,04,26,19,07,239.50
2021,04,26,19,08,234.00
2021,04,26,19,09,228.40
2021,04,26,19,10,222.30
2021,04,26,19,11,217.20
2021,04,26,19,12,213.20
2021,04,26,19,13,209.70
2021,04,26,19,14,206.60
2021,04,26,19,15,204.10
2021,04,26,19,16,200.40
2021,04,26,19,17,197.90
2021,04,26,19,18,194.50
2021,04,26,19,19,190.90
2021,04,26,19,20,186.20
2021,04,26,19,21,180.10
2021,04,26,19,22,174.50
2021,04,26,19,23,168.90
2021,04,26,19,24,161.40
2021,04,26,19,25,155.30
2021,04,26,19,26,149.90
2021,04,26,19,27,144.60
2021,04,26,19,28,139.70
2021,04,26,19,29,135.80
2021,04,26,19,30,131.10
2021,04,26,19,31,121.70
2021,04,26,19,32,109.10
2021,04,26,19,33,92.50
2021,04,26,19,34,77.40
2021,04,26,19,35,64.70
2021,04,26,19,36,56.90
2021,04,26,19,37,57.80
2021,04,26,19,38,62.80
2021,04,26,19,39,62.30
2021,04,26,19,40,55.70
2021,04,26,19,41,53.00
2021,04,26,19,42,47.10
2021,04,26,19,43,41.00
2021,04,26,19,44,39.00
2021,04,26,19,45,39.00
2021,04,26,19,46,38.00
2021,04,26,19,47,37.00
2021,04,26,19,48,35.70
2021,04,26,19,49,33.60
2021,04,26,19,50,33.00
2021,04,26,19,51,32.20
2021,04,26,19,52,30.20
2021,04,26,19,53,28.00
2021,04,26,19,54,25.90
2021,04,26,19,55,24.70
2021,04,26,19,56,22.50
2021,04,26,19,57,21.00
2021,04,26,19,58,20.30
2021,04,26,19,59,19.00
2021,04,26,20,00,18.50
2021,04,26,20,01,18.00
2021,04,26,20,02,18.00
2021,04,26,20,03,16.70
2021,04,26,20,04,16.00
2021,04,26,20,05,16.00
2021,04,26,20,06,16.00
2021,04,26,20,07,16.00
2021,04,26,20,08,16.00
2021,04,26,20,09,16.00
2021,04,26,20,10,16.00
2021,04,26,20,11,16.00
2021,04,26,20,12,16.00
2021,04,26,20,13,16.00
